This demonstration page uses our WeatherBlox Daily Observations layout. Learn more.

39.92423, -83.80882

Hourly Observations for December 21, 2019

Temp ( °F °C ) Dew Point ( °F °C ) Humidity (%) Winds ( mph kmh ) Pressure ( in mb ) Visibility ( mi km ) Precip ( " mm )
12:56 am 00:56 Clear 27 -2.8 24 -4.4 89 89 SSE 3 6 30.48 1032 10 16.0934 0 0
1:56 am 01:56 Clear 27 -2.8 25 -3.9 92 92 SSE 3 6 30.49 1032 10 16.0934 0 0
2:56 am 02:56 Clear 27 -2.8 25 -3.9 92 92 ESE 5 7 30.48 1032 10 16.0934 0 0
3:56 am 03:56 Clear 26 -3.3 25 -3.9 96 96 ESE 5 7 30.47 1032 9 14.48406 0 0
4:56 am 04:56 Clear 27 -2.8 25 -3.9 92 92 ESE 6 9 30.45 1031 10 16.0934 0 0
5:56 am 05:56 Clear 28 -2.2 26 -3.3 92 92 Calm 30.47 1032 10 16.0934 0 0
6:56 am 06:56 Clear 26 -3.3 24 -4.4 92 92 ESE 6 9 30.47 1032 10 16.0934 0 0
7:56 am 07:56 Sunny 25 -3.9 23 -5 92 92 ESE 3 6 30.47 1032 10 16.0934 0 0
8:56 am 08:56 Sunny 25 -3.9 24 -4.4 96 96 E 3 6 30.47 1032 9 14.48406 0 0
9:56 am 09:56 Sunny 31 -0.6 28 -2.2 89 89 Calm 30.47 1032 10 16.0934 0 0
10:56 am 10:56 Sunny 38 3.3 28 -2.2 68 68 S 3 6 30.45 1031 10 16.0934 0 0
11:56 am 11:56 Sunny 41 5 31 -0.6 67 67 SSW 5 7 30.43 1031 10 16.0934 0 0
12:56 pm 12:56 Sunny 43 6.1 31 -0.6 63 63 W 8 13 30.4 1030 10 16.0934 0 0
1:56 pm 13:56 Sunny 46 7.8 33 0.6 61 61 W 5 7 30.4 1029 10 16.0934 0 0
2:56 pm 14:56 Sunny 46 7.8 33 0.6 61 61 W 6 9 30.39 1029 10 16.0934 0 0
3:56 pm 15:56 Sunny 44 6.7 32 0 63 63 WSW 8 13 30.39 1029 10 16.0934 0 0
4:56 pm 16:56 Sunny 42 5.6 31 -0.6 65 65 W 5 7 30.39 1029 10 16.0934 0 0
5:56 pm 17:56 Clear 39 3.9 29 -1.7 67 67 Calm 30.4 1030 10 16.0934 0 0
6:56 pm 18:56 Clear 33 0.6 28 -2.2 82 82 Calm 30.42 1030 10 16.0934 0 0
7:56 pm 19:56 Clear 31 -0.6 28 -2.2 89 89 Calm 30.43 1030 10 16.0934 0.001 0.001
8:56 pm 20:56 Clear 31 -0.6 28 -2.2 89 89 S 3 6 30.43 1031 10 16.0934 0 0
9:56 pm 21:56 Clear 34 1.1 29 -1.7 82 82 Calm 30.42 1030 10 16.0934 0 0
10:56 pm 22:56 Clear 28 -2.2 26 -3.3 92 92 Calm 30.41 1030 10 16.0934 0 0
11:56 pm 23:56 Clear 28 -2.2 26 -3.3 92 92 SSE 3 6 30.4 1029 9 14.48406 0 0

Powered by AerisWeather